Regional Weather Roundup
Issued by NWS San Angelo, TX

Home | Current Version | Previous Version | Text Only | Print | Product List | Glossary On
Versions: 1 2 3 4 5 6 7 8 9 10 11 12 13 14 15 16 17 18 19 20 21 22 23 24 25 26 27 28 29 30 31 32 33 34 35 36 37 38 39 40 41 42 43 44 45 46 47 48 49 50
000
ASUS44 KSJT 311058
RWRSJT
WEST CENTRAL TEXAS REGIONAL WEATHER ROUNDUP
NATIONAL WEATHER SERVICE SAN ANGELO TX
600 AM CDT SUN AUG 31 2014

NOTE: "FAIR" INDICATES FEW OR NO CLOUDS BELOW 12,000 FEET WITH NO
SIGNIFICANT WEATHER AND/OR OBSTRUCTIONS TO VISIBILITY.

TXZ049-054-064>066-071>073-076>078-098-099-113-114-127-128-139-140-
154-155-168>170-311200
...LOCATIONS ACROSS WEST CENTRAL TEXAS...

CITY           SKY/WX    TMP DP  RH WIND       PRES   REMARKS
SAN ANGELO     CLEAR     74  67  78 S10       29.95S
ABILENE        CLEAR     75  67  76 S9        29.95S
DYESS AFB      NOT AVBL
JUNCTION       CLEAR     74  68  81 SE5       29.98S
SWEETWATER     NOT AVBL
BROWNWOOD      NOT AVBL
COLEMAN        NOT AVBL
SONORA         NOT AVBL
OZONA          NOT AVBL
BRADY          NOT AVBL
$$

TEXAS PANHANDLE/OKLAHOMA PANHANDLE

CITY           SKY/WX    TMP DP  RH WIND       PRES   REMARKS
AMARILLO       CLEAR     71  59  65 S18       29.96S
BORGER         CLEAR     75  59  57 S13G22    29.93R
CANADIAN       NOT AVBL
DALHART        CLEAR     66  52  60 S10       29.96F
DUMAS          NOT AVBL
GUYMON         NOT AVBL
HEREFORD       NOT AVBL
PAMPA          NOT AVBL
PERRYTON       NOT AVBL
$$

SOUTHERN PANHANDLE/SOUTH PLAINS/ROLLING PLAINS

CITY           SKY/WX    TMP DP  RH WIND       PRES   REMARKS
LUBBOCK        PTCLDY    74  61  63 S15       29.98S
SNYDER         NOT AVBL
CHILDRESS      MOCLDY    74  66  76 S10       29.91S
SEMINOLE       NOT AVBL
$$

PERMIAN BASIN

CITY           SKY/WX    TMP DP  RH WIND       PRES   REMARKS
MIDLAND        CLEAR     76  64  66 S12       29.97F
ODESSA         CLEAR     76  63  64 S13       29.98F
WINK           MOCLDY    76  63  64 SE8       29.95S
$$

FAR WEST/SOUTHWEST MOUNTAINS/TRANS PECOS

CITY           SKY/WX    TMP DP  RH WIND       PRES   REMARKS
ALPINE         NOT AVBL
DRYDEN           N/A     80  67  64 E6        29.95S
EL PASO        CLEAR     73  48  41 CALM      30.02R
FORT STOCKTON  CLEAR     74  61  63 S13       29.98S
GUADALUPE PASS NOT AVBL
MARFA          NOT AVBL
PECOS          NOT AVBL
$$

DALLAS/FORT WORTH METROPLEX

CITY           SKY/WX    TMP DP  RH WIND       PRES   REMARKS
DFW AIRPORT    CLEAR     77  71  82 S8        29.93R
FTW MEACHAM    CLEAR     79  71  76 S8        29.92R
DAL-EXECUTIVE  CLEAR     76  71  85 S7        29.94R
GRAND PRAIRIE  NOT AVBL
ADDISON        NOT AVBL
MESQUITE       NOT AVBL
LANCASTER      NOT AVBL
$$

NORTH CENTRAL TEXAS

CITY           SKY/WX    TMP DP  RH WIND       PRES   REMARKS
SHRMAN/DENISON NOT AVBL
GAINESVILLE    NOT AVBL
BRIDGEPORT     NOT AVBL
DENTON         CLEAR     75  70  84 SE7       29.93R
WAXAHACHIE     NOT AVBL
GRANBURY       NOT AVBL
$$

WESTERN NORTH TEXAS

CITY           SKY/WX    TMP DP  RH WIND       PRES   REMARKS
WICHITA FALLS  CLEAR     74  69  85 S9        29.90S
VERNON         NOT AVBL
BRECKENRIDGE   NOT AVBL
COMANCHE       NOT AVBL
$$

CENTRAL AND SOUTH CENTRAL TEXAS

CITY           SKY/WX    TMP DP  RH WIND       PRES   REMARKS
AUSTIN/BERGSTM MOCLDY    73  71  93 CALM      29.96R
WACO           CLEAR     76  72  87 S10       29.95R
HILLSBORO      NOT AVBL
TEMPLE         NOT AVBL
KILLEEN-GRAY   PTCLDY    73  72  94 S7        29.96R
FORT HOOD      NOT AVBL
GEORGETOWN     NOT AVBL
LAGO VISTA     NOT AVBL
SAN MARCOS     NOT AVBL
NEW BRAUNFELS  MOCLDY    75  72  90 S5        29.96R
RANDOLPH AFB   NOT AVBL
SAN ANTONIO    CLOUDY    78  73  84 S9        29.97S
STINSON        CLOUDY    77  74  90 SE5       29.95S
PLEASANTON     NOT AVBL
LA GRANGE      NOT AVBL
GIDDINGS       NOT AVBL
$$

EAST TEXAS

CITY           SKY/WX    TMP DP  RH WIND       PRES   REMARKS
PARIS          NOT AVBL
CLARKSVILLE    NOT AVBL
TYLER          CLEAR     76  73  91 S8        29.98R
LONGVIEW       PTCLDY    74  71  91 S3        29.99R
PALESTINE      NOT AVBL
NACOGDOCHES    NOT AVBL
$$

TEXAS HILL COUNTRY AND EDWARDS PLATEAU

CITY           SKY/WX    TMP DP  RH WIND       PRES   REMARKS
LLANO          NOT AVBL
HORSESHOE BAY  NOT AVBL
KERRVILLE      NOT AVBL
FREDERICKSBRG  NOT AVBL
ROCKSPRINGS    NOT AVBL
HONDO          CLOUDY    77  72  84 SE6       29.99R
UVALDE         NOT AVBL
DEL RIO        CLEAR     79  70  74 SE10      29.93R
$$

SOUTHEAST TEXAS

CITY           SKY/WX    TMP DP  RH WIND       PRES   REMARKS
COLLEGE STN    CLEAR     73  71  93 SE3       29.97R
CALDWELL       NOT AVBL
CROCKETT       NOT AVBL
BRENHAM        NOT AVBL
HUNTSVILLE     NOT AVBL
CONROE         CLOUDY    73  72  96 CALM      29.99R
HOUSTON BUSH   NOT AVBL
HOUSTON HOBBY  MOCLDY    78  75  90 CALM      29.97R
PERLAND        MOCLDY    77  74  90 CALM      29.98R
WHARTON        NOT AVBL
$$

THE UPPER TEXAS COAST

CITY           SKY/WX    TMP DP  RH WIND       PRES   REMARKS
ORANGE         NOT AVBL
PORT ARTHUR    MOCLDY    77  74  90 CALM      29.99R
GALVESTON      CLOUDY    83  77  82 S14       29.97S
ANGLETON       PTCLDY    75  74  96 N3        29.96S
BAY CITY       NOT AVBL
$$

TEXAS COASTAL BEND, RIO GRANDE PLAINS DEEP SOUTH TEXAS

CITY           SKY/WX    TMP DP  RH WIND       PRES   REMARKS
VICTORIA       MOCLDY    78  75  90 CALM      29.94F
BEEVILLE       NOT AVBL
ROCKPORT       PTCLDY    83  77  82 S5        29.92F
PORT ARANSAS   NOT AVBL
PORT LAVACA    NOT AVBL
CORPUS CHRISTI PTCLDY    78  77  96 S3        29.92F
KINGSVILLE NAS NOT AVBL
COTULLA        CLEAR     76  72  87 E6        29.94R
LAREDO         NOT AVBL
BROWNSVILLE    CLEAR     78  75  90 SE6       29.92S
PORT ISABEL    PTCLDY    80  74  81 S7        29.92S
HEBBRONVILLE   NOT AVBL
MCALLEN        CLEAR     79  77  94 SE6       29.92R
WESLACO        NOT AVBL
FALFURRIAS     NOT AVBL
EDINBURG       NOT AVBL
$$



USA.gov is the U.S. government's official web portal to all federal, state and local government web resources and services.